FENGYUN 1C DEB

Satellite information

Favourite Embed

Satellite Type and Status

DEBRISIN ORBIT

Key statistics

Satellite FENGYUN 1C DEB at a glance.

Uptime

9715

Days in orbit

Revolutions

≈ 14.3

Per day

Orbit

SSO

Sun Synchronous Orbit

Inclination

99.3

Latest

Satellite identification and parameters

Extended collection of information and parameters for FENGYUN 1C DEB.

Object identification

Identified? True

Debris? True

Object name: FENGYUN 1C DEB

International designator: 1999-025AVR

Object number (NORAD): 30831

Object ID (CCSDS): 30831

Country: PEOPLES REPUBLIC OF CHINA (PRC)

Current information (Y/N): Y

RCS size: SMALL

Orbital parameters

Period: 100.623 minutes

Inclination: 99.3282 deg

SMA: 7166.231 km

Apoapsis: 827.876 km

Periapsis: 748.316 km

RAAN: 139.951 deg

Eccentricy: 0.00555105

Argument of periapsis: 32.948 deg

Mean anomaly: 327.514 deg

Mean motion: 14.31088633 rev/day

Mean motion (dot): 0.00001558 rev/day2

B* drag term: 0.00059988315 1/REarth

Two-line elements (TLE)

Creation date: Dec. 13, 2025, 5:47 p.m.

Reference frame: TEME

Reference center: EARTH

Epoch: Dec. 13, 2025, 3:47 a.m. UTC

TLE line 0: 0 FENGYUN 1C DEB

TLE line 1: 1 30831U 99025AVR 25347.15793731 .00001558 00000-0 59988-3 0 9998

TLE line 2: 2 30831 99.3282 139.9510 0055510 32.9480 327.5140 14.31088633652563

Live tracking on map

Real-time ground track for satellite FENGYUN 1C DEB.

In-orbit conjunctions

A list of the most updated potential collisions computed for object FENGYUN 1C DEB.

Target Orbit TCA Probability of collision Miss distance Type
CZ-6A DEB LEO 2025-12-13 15:55:10 0.0005828055 149.0 (m) DEBRIS
COSMOS 2251 DEB LEO 2025-12-03 06:12:43 0.0003758662 70.0 (m) DEBRIS
ARIANE 40 R/B SSO 2025-02-25 19:06:38 0.0002728507 324.0 (m) ROCKET BODY
COSMOS 1275 DEB LEO 2025-01-08 12:20:39 0.000166131 108.0 (m) DEBRIS
NOAA 16 DEB SSO 2024-09-28 02:59:57 0.0001605744 545.0 (m) DEBRIS

Associated space launch

Chinese polar orbiting meteorological satellite

FENGYUN 1C DEB was lifted into orbit during the mission ‘Long March 4B | Feng Yun 1C’, on board a Long March 4B space rocket.

The launch took place on May 10, 1999, 1:33 a.m. from Launch Complex 7.

For more information about the launch, click the button.

Launch to space Long March 4B | Feng Yun 1C
Long March 4B | Feng Yun 1C

Agency: N/A

Status: Launch Successful

Launch date: May 10, 1999, 1:33 a.m. UTC

Rocket: Long March 4B

Launch pad: Launch Complex 7

Location: Taiyuan Satellite Launch Center, People's Republic of China

...

Latest news about this satellite

There are no fresh news available about this satellite. Check back as we update our databases every day.


Newsletter sign-up

Weekly statistics, charts and insights to help you stay on top of the space industry.